Location: Joplin, MO
(37.0842°N, 94.5133°W)
Time: 20:24:35
(UTC+02:00)

Transit 2A Rocket - Pass Details

Date: 27 March 2023
Orbit: 584 x 914 km, 66.7° (Epoch: 09 June)

Event Time Altitude Azimuth Distance (km) Brightness Sun altitude
Rises 18:50:22 0° 208° (SSW) 3,176 8.4 49.5°
Reaches altitude 10° 18:52:39 10° 209° (SSW) 2,305 7.8 49.8°
Maximum altitude 18:57:59 84° 298° (WNW) 833 6.0 50.4°
Drops below altitude 10° 19:03:52 10° 26° (NNE) 2,523 7.6 51.0°
Sets 19:06:27 0° 28° (NNE) 3,498 8.2 51.3°
